Ottawa International, Ontario

8:47 AM EDT on May 24, 2017 (GMT -0400)
Ottawa International Airport

Weather History for CYOW - December, 2012

Change the Weather History Date:

Saturday, December 8, 2012

  Actual Average Record
Temperature  
Mean Temperature 33 °F -  
Max Temperature 34 °F 24 °F 39 °F (2004)
Min Temperature 32 °F 9 °F -5 °F (2000)
Degree Days  
Heating Degree Days 32    
Moisture  
Dew Point 32 °F    
Average Humidity 97    
Maximum Humidity 100    
Minimum Humidity 90    
Precipitation  
Precipitation 0.12 in 0.10 in - ()
Sea Level Pressure  
Sea Level Pressure 29.91 in    
Wind  
Wind Speed 5 mph ()    
Max Wind Speed 14 mph    
Max Gust Speed -    
Visibility 3.2 miles    
Events Rain , Snow    
Averages and records for this station are not official NWS values.
T = Trace of Precipitation, MM = Missing Value Source: Averaged Metar Reports

Daily Weather History Graph

Daily Weather History Graph

Search for Another Location

Airport or City:

Trip Planner

Search our weather history database for the weather conditions in past years. The results will help you decide how hot, cold, wet, or windy it might be!

Date:

Astronomy

Dec. 08, 2012 Rise Set
Actual Time 7:29 AM EST 4:19 PM EST
Civil Twilight 6:55 AM EST 4:53 PM EST
Nautical Twilight 6:18 AM EST 5:30 PM EST
Astronomical Twilight 5:42 AM EST 6:06 PM EST
Moon 1:39 AM EST (12/8) 12:59 PM EST (12/8)
Length of Visible Light 9h 57m
Length of Day
8h 50m
Waning Crescent, 28% of the Moon is Illuminated
Dec 8
Waning Crescent
Dec 13
New
Dec 20
First Quarter
Dec 28
Full
Jan 4
Last Quarter

Hourly Weather History & Observations

Time (EST) Temp. Windchill Dew Point Humidity Pressure Visibility Wind Dir Wind Speed Gust Speed Precip Events Conditions
12:00 AM 35.6 °F 32.8 °F 33.8 °F 93% 29.99 in 10.0 mi South 3.5 mph - N/A   Overcast
1:00 AM 35 °F - 33 °F 90% 30.00 in 10 mi Calm Calm - -   Partly Cloudy
1:00 AM 35.6 °F - 33.8 °F 93% 30.00 in 10.0 mi Calm Calm - N/A   Overcast
2:00 AM 33.8 °F - 33.8 °F 100% 29.99 in 8.0 mi Calm Calm - N/A   Overcast
2:50 AM 33.8 °F 28.6 °F 32.0 °F 93% 29.98 in 4.0 mi NE 5.8 mph - N/A   Overcast
3:00 AM 33.8 °F 29.6 °F 33.8 °F 100% 29.98 in 3.0 mi ENE 4.6 mph - N/A   Overcast
4:00 AM 33.8 °F 30.8 °F 32.0 °F 93% 29.96 in 3.0 mi East 3.5 mph - N/A   Overcast
5:00 AM 33.8 °F 28.6 °F 32.0 °F 93% 29.95 in 3.0 mi ENE 5.8 mph - N/A   Overcast
5:54 AM 33.8 °F 29.6 °F 32.0 °F 93% 29.96 in 2.0 mi NE 4.6 mph - N/A Rain Light Rain
6:00 AM 33.8 °F 28.6 °F 32.0 °F 93% 29.96 in 2.5 mi NE 5.8 mph - N/A Rain Light Rain
7:00 AM 33 °F - 32 °F 95% 29.95 in 2 mi ENE 4.6 mph - - Rain Light Rain
7:00 AM 33.8 °F 28.6 °F 32.0 °F 93% 29.95 in 2.0 mi ENE 5.8 mph - N/A Rain Light Rain
7:25 AM 32.0 °F 25.6 °F 32.0 °F 100% 29.94 in 1.0 mi NE 6.9 mph - N/A   Light Drizzle
7:41 AM 32.0 °F 27.5 °F 32.0 °F 100% 29.94 in 0.8 mi NE 4.6 mph - N/A   Light Drizzle
8:00 AM 33.8 °F 27.7 °F 32.0 °F 93% 29.94 in 0.8 mi NE 6.9 mph - N/A   Light Drizzle
9:00 AM 33.8 °F 27.0 °F 32.0 °F 93% 29.92 in 0.8 mi NE 8.1 mph - N/A Rain Light Rain
10:00 AM 33.8 °F 27.7 °F 33.8 °F 100% 29.92 in 0.8 mi NE 6.9 mph - N/A Rain Light Rain
10:55 AM 33.8 °F 27.7 °F 32.0 °F 93% 29.90 in 0.8 mi NE 6.9 mph - N/A Snow Light Snow
11:00 AM 33.8 °F 27.7 °F 32.0 °F 93% 29.89 in 0.8 mi NE 6.9 mph - N/A Snow Light Snow
12:00 PM 33.8 °F 25.8 °F 33.8 °F 100% 29.84 in 1.0 mi NE 10.4 mph - N/A Snow Light Snow
12:26 PM 33.8 °F 26.4 °F 33.8 °F 100% 29.83 in 1.5 mi NE 9.2 mph - N/A Rain Light Rain
1:00 PM 34 °F - 33 °F 95% 29.83 in 1 mi ENE 6.9 mph - - Rain Light Rain
1:00 PM 33.8 °F 27.7 °F 33.8 °F 100% 29.82 in 1.5 mi NE 6.9 mph - N/A Rain Light Rain
1:21 PM 33.8 °F 27.7 °F 32.0 °F 93% 29.82 in 0.8 mi NE 6.9 mph - N/A Snow Light Snow
1:42 PM 32.0 °F 24.8 °F 32.0 °F 100% 29.81 in 0.5 mi NNE 8.1 mph - N/A Snow Snow
2:00 PM 32.0 °F 25.6 °F 32.0 °F 100% 29.81 in 0.5 mi NNE 6.9 mph - N/A Snow Snow
2:14 PM 32.0 °F 25.6 °F 32.0 °F 100% 29.81 in 1.0 mi North 6.9 mph - N/A Snow Light Snow
2:36 PM 32.0 °F 25.6 °F 32.0 °F 100% 29.81 in 0.8 mi NNE 6.9 mph - N/A Snow Light Snow
3:00 PM 32.0 °F 24.8 °F 32.0 °F 100% 29.81 in 1.5 mi North 8.1 mph - N/A Snow Light Snow
4:00 PM 32.0 °F 26.4 °F 32.0 °F 100% 29.83 in 1.5 mi North 5.8 mph - N/A Snow Light Snow
5:00 PM 32.0 °F 26.4 °F 32.0 °F 100% 29.84 in 2.0 mi North 5.8 mph - N/A Snow Light Snow
6:00 PM 32.0 °F 26.4 °F 32.0 °F 100% 29.87 in 2.0 mi NNW 5.8 mph - N/A Snow Light Snow
7:00 PM 33 °F - 32 °F 95% 29.89 in 2 mi West 4.6 mph - - Snow Light Snow
7:00 PM 32.0 °F 26.4 °F 32.0 °F 100% 29.89 in 2.0 mi West 5.8 mph - N/A Snow Light Drizzle
8:00 PM 32.0 °F 24.8 °F 32.0 °F 100% 29.91 in 2.0 mi West 8.1 mph - N/A Snow Light Snow
8:35 PM 32.0 °F 24.8 °F 32.0 °F 100% 29.93 in 4.0 mi West 8.1 mph - N/A   Light Drizzle
9:00 PM 32.0 °F 24.2 °F 32.0 °F 100% 29.94 in 6.0 mi West 9.2 mph - N/A   Light Drizzle
9:19 PM 33.8 °F 27.7 °F 32.0 °F 93% 29.95 in 8.0 mi West 6.9 mph - N/A   Overcast
10:00 PM 33.8 °F 25.3 °F 32.0 °F 93% 29.97 in 12.0 mi West 11.5 mph - N/A   Overcast
11:00 PM 33.8 °F 24.3 °F 32.0 °F 93% 30.01 in 12.0 mi West 13.8 mph - N/A   Overcast